Location: Riverside Cemetery
(38.3047°N, 99.7773°W)
Time: 19:22:30
(UTC+00:00)

Cosmos 1535 Rocket - Pass Details

Date: 19 September 2020
Orbit: 949 x 1003 km, 83.0° (Epoch: 21 October)

Event Time Altitude Azimuth Distance (km) Brightness Sun altitude
Rises 10:25:38 0° 350° (N) 3,728 7.7 -23.6°
Reaches altitude 10° 10:28:10 10° 347° (NNW) 2,778 7.0 -23.1°
Maximum altitude 10:34:30 66° 267° (W) 1,088 4.4 -22.0°
Drops below altitude 10° 10:40:47 10° 186° (S) 2,763 6.6 -20.8°
Sets 10:43:19 0° 184° (S) 3,706 7.3 -20.3°
